MAUNA LOA HI US current weather conditions

sailwx.info

Wind from 132 at 2 knots gusting 11

Air temperature 15.0° C
Dewpoint 15.0° C

Last reported at 2016-Dec-05 19:34 UTC.
Time now 2016-Dec-05 20:43 UTC

Location: N 19°28' W 155°22'.
View on Google Maps.

See reports from other nearby stations

  
Tides and Currents Weather Stations Pressure Air Temp Water Temp Dewpoint Dewpoint Depression Visibility Wind Speed Wind Dir Waves Ship Positions
date/time (UTC)wind fromknots sea level pressurealtimeterstation pressurevisibilityair tempwater tempwave heightnotes
2016-Dec-05 19:34 132 2 gusting 11 15.0
2016-Dec-05 18:34 104 6 gusting 15 14.4
2016-Dec-05 17:34 103 6 gusting 16 15.0
2016-Dec-05 16:34 135 5 gusting 12 14.4
2016-Dec-05 15:34 127 6 gusting 12 14.4
2016-Dec-05 14:34 198 4 gusting 10 13.9
2016-Dec-05 13:34 189 4 gusting 13 13.9
2016-Dec-05 12:34 133 6 gusting 13 14.4
2016-Dec-05 11:34 165 5 gusting 13 14.4
2016-Dec-05 10:34 192 4 gusting 7 13.9
2016-Dec-05 09:34 160 3 gusting 7 13.9
2016-Dec-05 08:34 161 1 gusting 10 13.9
2016-Dec-05 07:34 142 4 gusting 7 13.9
2016-Dec-05 06:34 109 1 gusting 7 13.9
2016-Dec-05 05:34 210 3 gusting 6 13.3
2016-Dec-05 04:34 216 3 gusting 9 13.3
2016-Dec-05 03:34 209 4 gusting 9 13.9
2016-Dec-05 02:34 255 4 gusting 6 13.9
2016-Dec-05 01:34 176 2 gusting 6 14.4
2016-Dec-05 00:34 297 1 gusting 11 15.0
2016-Dec-04 23:34 197 2 gusting 10 16.7
2016-Dec-04 22:34 209 4 gusting 8 15.6
2016-Dec-04 21:34 106 1 gusting 10 14.4
2016-Dec-04 20:34 221 5 gusting 8 13.9
2016-Dec-04 19:34 167 3 gusting 6 13.9
2016-Dec-04 18:34 229 2 gusting 5 13.3
2016-Dec-04 17:34 259 4 gusting 7 12.2
2016-Dec-04 16:34 264 6 gusting 10 11.7
2016-Dec-04 15:34 266 5 gusting 7 11.1
2016-Dec-04 14:34 251 4 gusting 9 11.7
2016-Dec-04 13:34 256 6 gusting 11 11.7
2016-Dec-04 12:34 265 6 gusting 11 11.1
2016-Dec-04 11:34 233 4 gusting 9 10.6
2016-Dec-04 10:34 262 4 gusting 6 8.3
2016-Dec-04 09:34 253 4 gusting 7 8.9
2016-Dec-04 08:34 237 4 gusting 13 10.0
2016-Dec-04 07:34 262 4 gusting 9 9.4
2016-Dec-04 06:34 247 5 gusting 7 10.6
2016-Dec-04 05:34 240 4 gusting 9 11.7
2016-Dec-04 04:34 189 3 gusting 7 13.9
2016-Dec-04 03:34 185 3 gusting 7 14.4
2016-Dec-04 02:34 153 2 gusting 10 18.3
2016-Dec-04 01:34 158 5 gusting 10 18.3
2016-Dec-04 00:34 156 5 gusting 10 16.1
2016-Dec-03 23:34 161 5 gusting 9 17.8
2016-Dec-03 22:34 137 2 gusting 12 19.4
2016-Dec-03 21:34 131 2 gusting 7 18.3
2016-Dec-03 20:34 208 3 gusting 6 16.7